Celoron, NY

9:57 AM EDT on August 27, 2016 (GMT -0400)
Chautauqua County-Jamestown

Weather History for KJHW - August, 2012

Change the Weather History Date:

Sunday, August 5, 2012

  Actual Average Record
Temperature  
Mean Temperature 72 °F -  
Max Temperature 77 °F 79 °F 94 °F (1988)
Min Temperature 66 °F 55 °F 40 °F (1985)
Cooling Degree Days 6    
Growing Degree Days 22 (Base 50)    
Moisture  
Dew Point 67 °F    
Average Humidity 80    
Maximum Humidity 94    
Minimum Humidity 73    
Precipitation  
Precipitation 0.16 in - - ()
Sea Level Pressure  
Sea Level Pressure 30.02 in    
Wind  
Wind Speed 11 mph (SW)    
Max Wind Speed 16 mph    
Max Gust Speed 28 mph    
Visibility 10 miles    
Events Thunderstorm    
Averages and records for this station are not official NWS values.
T = Trace of Precipitation, MM = Missing Value Source: NWS Daily Summary

Daily Weather History Graph

Daily Weather History Graph

Search for Another Location

Airport or City:

Trip Planner

Search our weather history database for the weather conditions in past years. The results will help you decide how hot, cold, wet, or windy it might be!

Date:

Astronomy

Aug. 05, 2012 Rise Set
Actual Time 6:14 AM EDT 8:30 PM EDT
Civil Twilight 5:43 AM EDT 9:01 PM EDT
Nautical Twilight 5:04 AM EDT 9:39 PM EDT
Astronomical Twilight 4:22 AM EDT 10:22 PM EDT
Moon 10:02 PM EDT (8/5) 10:07 AM EDT (8/5)
Length of Visible Light 15h 18m
Length of Day
14h 15m
Waning Gibbous, 86% of the Moon is Illuminated
Aug 5
Waning Gibbous
Aug 9
Last Quarter
Aug 17
New
Aug 24
First Quarter
Aug 31
Full

Hourly Weather History & Observations

Time (EDT) Temp. Dew Point Humidity Pressure Visibility Wind Dir Wind Speed Gust Speed Precip Events Conditions
12:35 AM 75.2 °F 66.2 °F 73% 30.05 in 10.0 mi South 10.4 mph - N/A   Mostly Cloudy
12:55 AM 75.2 °F 66.2 °F 73% 30.03 in 10.0 mi South 10.4 mph - N/A   Scattered Clouds
1:15 AM 75.2 °F 66.2 °F 73% 30.03 in 10.0 mi South 10.4 mph 16.1 mph N/A   Clear
1:35 AM 75.2 °F 66.2 °F 73% 30.03 in 10.0 mi South 11.5 mph - N/A   Partly Cloudy
1:55 AM 75.2 °F 66.2 °F 73% 30.02 in 10.0 mi South 9.2 mph - N/A   Partly Cloudy
2:15 AM 75.2 °F 66.2 °F 73% 30.01 in 10.0 mi South 11.5 mph - N/A   Clear
2:35 AM 75.2 °F 66.2 °F 73% 30.01 in 10.0 mi South 10.4 mph 17.3 mph N/A   Clear
2:55 AM 75.2 °F 66.2 °F 73% 30.00 in 10.0 mi South 12.7 mph 19.6 mph N/A   Scattered Clouds
3:15 AM 75.2 °F 66.2 °F 73% 29.99 in 10.0 mi South 11.5 mph 18.4 mph N/A   Partly Cloudy
3:35 AM 75.2 °F 66.2 °F 73% 30.00 in 10.0 mi South 13.8 mph 21.9 mph N/A   Mostly Cloudy
3:55 AM 75.2 °F 66.2 °F 73% 30.00 in 10.0 mi SSW 16.1 mph 21.9 mph N/A   Overcast
4:15 AM 75.2 °F 66.2 °F 73% 30.01 in 10.0 mi SSW 13.8 mph 27.6 mph N/A   Overcast
4:35 AM 75.2 °F 66.2 °F 73% 30.01 in 10.0 mi SSW 13.8 mph 24.2 mph N/A   Mostly Cloudy
4:55 AM 75.2 °F 66.2 °F 73% 30.01 in 10.0 mi SSW 12.7 mph 20.7 mph N/A   Overcast
5:15 AM 75.2 °F 66.2 °F 73% 30.01 in 10.0 mi SSW 11.5 mph 18.4 mph N/A   Mostly Cloudy
5:35 AM 73.4 °F 66.2 °F 78% 30.00 in 10.0 mi South 9.2 mph - N/A   Scattered Clouds
5:55 AM 73.4 °F 66.2 °F 78% 29.99 in 10.0 mi South 10.4 mph - N/A   Scattered Clouds
6:15 AM 73.4 °F 64.4 °F 73% 30.01 in 10.0 mi SSW 10.4 mph 16.1 mph N/A   Scattered Clouds
6:35 AM 73.4 °F 64.4 °F 73% 30.02 in 10.0 mi SSW 9.2 mph - N/A   Mostly Cloudy
6:55 AM 73.4 °F 64.4 °F 73% 30.02 in 10.0 mi SSW 10.4 mph - N/A   Mostly Cloudy
7:15 AM 73.4 °F 64.4 °F 73% 30.03 in 10.0 mi SSW 10.4 mph 16.1 mph N/A   Overcast
7:35 AM 73.4 °F 64.4 °F 73% 30.03 in 10.0 mi SSW 12.7 mph - N/A   Overcast
7:55 AM 73.4 °F 66.2 °F 78% 30.03 in 10.0 mi South 12.7 mph - N/A   Overcast
8:15 AM 71.6 °F 66.2 °F 83% 30.03 in 10.0 mi SSW 9.2 mph - N/A   Overcast
8:35 AM 73.4 °F 66.2 °F 78% 30.02 in 10.0 mi South 9.2 mph - N/A   Overcast
8:55 AM 73.4 °F 66.2 °F 78% 30.01 in 10.0 mi SSW 11.5 mph - N/A   Overcast
9:15 AM 73.4 °F 66.2 °F 78% 30.01 in 10.0 mi SSW 10.4 mph 19.6 mph N/A   Overcast
9:35 AM 73.4 °F 68.0 °F 83% 30.01 in 10.0 mi SSW 11.5 mph 18.4 mph N/A   Overcast
9:55 AM 75.2 °F 68.0 °F 78% 30.01 in 10.0 mi SW 11.5 mph 20.7 mph N/A   Overcast
10:15 AM 75.2 °F 69.8 °F 83% 30.01 in 10.0 mi SW 11.5 mph 19.6 mph N/A   Overcast
10:35 AM 77.0 °F 69.8 °F 78% 30.01 in 10.0 mi SW 15.0 mph 24.2 mph N/A   Overcast
10:55 AM 77.0 °F 69.8 °F 78% 30.01 in 10.0 mi SSW 9.2 mph 18.4 mph N/A   Overcast
11:15 AM 75.2 °F 69.8 °F 83% 30.01 in 8.0 mi SSW 10.4 mph 19.6 mph N/A   Overcast
11:35 AM 75.2 °F 69.8 °F 83% 30.00 in 9.0 mi SSW 10.4 mph 17.3 mph N/A   Overcast
11:55 AM 75.2 °F 69.8 °F 83% 30.00 in 7.0 mi SSW 10.4 mph 19.6 mph N/A   Overcast
12:15 PM 73.4 °F 69.8 °F 88% 30.00 in 5.0 mi SSW 12.7 mph 19.6 mph N/A   Overcast
12:35 PM 73.4 °F 69.8 °F 88% 30.00 in 7.0 mi SSW 10.4 mph 21.9 mph N/A Thunderstorm Overcast
12:55 PM 73.4 °F 68.0 °F 83% 30.00 in 9.0 mi SSW 13.8 mph 24.2 mph N/A   Overcast
1:15 PM 71.6 °F 69.8 °F 94% 30.00 in 7.0 mi SSW 12.7 mph 17.3 mph 0.03 in   Overcast
1:35 PM 71.6 °F 68.0 °F 88% 30.01 in 9.0 mi SSW 6.9 mph - 0.05 in   Overcast
1:55 PM 69.8 °F 68.0 °F 94% 30.01 in 10.0 mi SW 6.9 mph - 0.08 in   Overcast
2:15 PM 71.6 °F 68.0 °F 88% 30.01 in 10.0 mi SW 11.5 mph - N/A   Overcast
2:35 PM 71.6 °F 69.8 °F 94% 30.01 in 10.0 mi WSW 10.4 mph 17.3 mph N/A   Overcast
2:55 PM 69.8 °F 66.2 °F 88% 30.01 in 9.0 mi West 8.1 mph 16.1 mph 0.08 in   Mostly Cloudy
3:15 PM 71.6 °F 68.0 °F 88% 30.00 in 10.0 mi West 10.4 mph 16.1 mph N/A   Mostly Cloudy
3:35 PM 73.4 °F 68.0 °F 83% 29.99 in 10.0 mi SW 9.2 mph - N/A   Mostly Cloudy
3:55 PM 73.4 °F 69.8 °F 88% 30.00 in 10.0 mi SW 11.5 mph - N/A   Overcast
4:15 PM 73.4 °F 68.0 °F 83% 29.99 in 10.0 mi SW 6.9 mph - N/A   Mostly Cloudy
4:35 PM 73.4 °F 69.8 °F 88% 29.98 in 10.0 mi SW 10.4 mph - N/A   Overcast
5:15 PM 75.2 °F 69.8 °F 83% 29.98 in 10.0 mi West 13.8 mph 18.4 mph N/A   Mostly Cloudy
5:35 PM 75.2 °F 68.0 °F 78% 29.99 in 10.0 mi West 12.7 mph - N/A   Mostly Cloudy
5:55 PM 75.2 °F 66.2 °F 73% 30.00 in 10.0 mi West 11.5 mph 21.9 mph N/A   Mostly Cloudy
6:15 PM 75.2 °F 66.2 °F 73% 30.00 in 10.0 mi West 9.2 mph - N/A   Mostly Cloudy
6:35 PM 75.2 °F 66.2 °F 73% 30.01 in 10.0 mi West 15.0 mph 21.9 mph N/A   Partly Cloudy
6:55 PM 75.2 °F 66.2 °F 73% 30.01 in 10.0 mi West 10.4 mph - N/A   Partly Cloudy
7:15 PM 73.4 °F 64.4 °F 73% 30.02 in 10.0 mi West 15.0 mph 20.7 mph N/A   Scattered Clouds
7:35 PM 73.4 °F 64.4 °F 73% 30.03 in 10.0 mi West 12.7 mph 19.6 mph N/A   Partly Cloudy
7:55 PM 73.4 °F 64.4 °F 73% 30.03 in 10.0 mi West 12.7 mph 21.9 mph N/A   Clear
8:15 PM 71.6 °F 64.4 °F 78% 30.04 in 10.0 mi WNW 11.5 mph - N/A   Clear
8:35 PM 71.6 °F 64.4 °F 78% 30.04 in 10.0 mi West 11.5 mph 16.1 mph N/A   Scattered Clouds
8:55 PM 71.6 °F 64.4 °F 78% 30.05 in 10.0 mi West 8.1 mph - N/A   Scattered Clouds
9:15 PM 69.8 °F 64.4 °F 83% 30.06 in 10.0 mi West 6.9 mph - N/A   Clear
9:35 PM 69.8 °F 64.4 °F 83% 30.07 in 10.0 mi West 8.1 mph - N/A   Clear
9:55 PM 69.8 °F 64.4 °F 83% 30.07 in 10.0 mi West 8.1 mph - N/A   Clear
10:15 PM 69.8 °F 64.4 °F 83% 30.07 in 10.0 mi West 8.1 mph - N/A   Clear
10:35 PM 69.8 °F 64.4 °F 83% 30.08 in 10.0 mi West 8.1 mph - N/A   Clear
10:55 PM 68.0 °F 64.4 °F 88% 30.08 in 10.0 mi West 6.9 mph - N/A   Clear
11:15 PM 66.2 °F 64.4 °F 94% 30.09 in 10.0 mi West 5.8 mph - N/A   Clear
11:35 PM 66.2 °F 64.4 °F 94% 30.08 in 8.0 mi WSW 6.9 mph - N/A   Clear
11:55 PM 66.2 °F 64.4 °F 94% 30.09 in 10.0 mi West 6.9 mph - N/A   Clear